Location: ?????
(31.8092°N, 35.2590°E)
Time: 15:55:10
(UTC+00:00)

Cosmos 2026 Rocket - Pass Details

Date: 20 June 2021
Orbit: 939 x 1001 km, 82.9° (Epoch: 03 August)

Event Time Altitude Azimuth Distance (km) Brightness Sun altitude
Exits shadow 23:10:35 68° 97° (E) 1,050 4.1 -30.7°
Maximum altitude 23:10:38 68° 93° (E) 1,049 4.1 -30.7°
Drops below altitude 10° 23:16:55 10° 11° (NNE) 2,758 7.2 -30.2°
Sets 23:19:28 0° 10° (N) 3,717 8.1 -29.9°
